SCP
0 0 0 0 0 0 0 0 0 0 0 0 0 0 0 0 0 0 0 0 0 0
0 0 0 0 0 0 0 0 0 0 0 0 0 0 0 0 0 0 0 0 0 0
0 0 0 0 0 0 0 0 0 0 0 0 0 0 0 0 0 0 0 0 0 0
0 0 0 0 0 0 0 0 0 0 0 0 0 0 0 0 0 0 0 0 0 0
0 0 0 0 0 0 0 0 0 0 0 0 0 0 0 0 0 0 0 0 0 0
0 0 0 0 0 0 0 0 0 0 0 0 0 0 0 0 0 0 0 0 0 0
0 0 0 0 0 0 0 0 0 0 0 0 0 0 0 0 0 0 0 0 0 0
0 0 0 0 0 0 0 0 0 0 0 0 0 0 0 0 0 0 0 0 0 0
0 0 0 0 0 0 0 0 0 0 0 0 0 0 0 0 0 0 0 0 0 0
0 0 0 0 0 0 0 0 0 0 0 0 0 0 0 0 0 0 0 0 0 0
0 0 0 0 0 0 0 0 0 0 0 0 0 0 0 0 0 0 0 0 0 0
0 0 0 0 0 0 0 0 0 0 0 0 0 0 0 0 0 0 0 0 0 0
0 0 0 0 0 0 0 0 0 0 0 0 0 0 0 0 0 0 0 0 0 0
0 0 0 0 0 0 0 0 0 0 0 0 0 0 0 0 0 0 0 0 0 0
Wind_Speed_500mb
22 22 25 26 29 33 36 39 41 42 43 45 46 46 46 46 47 50 53 55 57 57
20 23 26 29 33 35 38 41 43 46 47 47 47 50 54 55 54 54 53 54 55 58
20 25 29 33 37 41 44 47 49 51 52 52 51 51 52 52 52 57 56 58 59 60
25 31 36 40 43 46 47 49 50 52 53 53 54 54 55 55 55 56 55 54 59 62
33 38 41 44 46 48 48 48 50 49 49 49 51 52 56 59 60 61 61 59 60 61
38 41 43 44 46 46 47 45 45 46 47 48 49 49 51 56 59 62 64 64 66 66
39 41 44 45 45 47 48 51 51 52 53 53 54 54 55 58 61 61 62 62 63 65
41 44 47 46 46 47 47 51 54 56 57 59 61 59 62 63 66 67 66 64 63 63
42 46 46 46 49 53 57 60 64 65 67 68 68 67 68 69 71 72 71 70 65 66
46 48 51 56 59 61 63 65 67 69 69 71 71 68 69 69 73 73 73 72 69 68
47 51 54 59 60 61 62 64 66 68 69 72 70 67 67 68 73 74 73 71 69 69
46 52 56 61 61 61 65 66 68 71 71 72 72 66 67 69 72 74 73 71 70 67
47 52 57 60 64 67 69 71 73 75 75 76 76 67 67 67 70 72 73 72 68 64
52 57 62 66 68 70 72 75 79 82 80 80 75 70 67 65 67 65 68 64 65 64
Wind_Direction_500mb
273 278 281 283 284 288 290 293 294 294 295 296 296 295 294 292 289 286 284 283 283 284
273 281 286 290 292 293 295 297 298 298 298 297 296 293 290 289 288 286 286 287 286 285
281 288 292 294 296 297 297 297 297 296 296 295 295 294 293 293 291 286 285 283 283 283
295 298 299 298 298 298 298 298 298 298 296 296 294 293 292 291 291 290 290 288 286 285
295 298 299 299 299 300 300 300 301 300 300 300 296 293 292 290 289 290 290 290 288 290
296 300 302 302 302 301 301 301 299 299 300 300 300 299 297 295 292 289 290 290 289 290
296 301 304 303 303 304 306 308 308 307 307 305 304 304 302 299 297 295 293 292 290 290
298 298 297 299 301 302 304 304 304 303 303 303 304 305 304 301 298 297 296 296 295 293
294 287 288 296 299 301 302 301 300 299 299 299 299 302 302 301 300 296 295 297 297 296
292 287 290 295 298 299 300 300 300 300 300 299 298 298 300 299 297 298 297 297 299 296
292 291 292 295 297 299 299 300 301 303 302 301 302 303 302 299 296 296 296 296 296 294
292 288 288 292 297 298 299 300 301 302 303 303 303 304 302 300 297 296 295 296 295 292
292 291 291 294 295 298 299 299 299 300 302 304 304 304 302 300 297 296 296 295 294 293
292 293 294 295 296 298 299 298 298 298 300 301 302 301 300 298 294 295 295 297 295 295
Wind_Speed_850mb
22 22 25 26 29 33 36 39 41 42 43 45 46 46 46 46 47 50 53 55 57 57
20 23 26 29 33 35 38 41 43 46 47 47 47 50 54 55 54 54 53 54 55 58
20 25 29 33 37 41 44 47 49 51 52 52 51 51 52 52 52 57 56 58 59 60
25 31 36 40 43 46 47 49 50 52 53 53 54 54 55 55 55 56 55 54 59 62
33 38 41 44 46 48 48 48 50 49 49 49 51 52 56 59 60 61 61 59 60 61
38 41 43 44 46 46 47 45 45 46 47 48 49 49 51 56 59 62 64 64 66 66
39 41 44 45 45 47 48 51 51 52 53 53 54 54 55 58 61 61 62 62 63 65
41 44 47 46 46 47 47 51 54 56 57 59 61 59 62 63 66 67 66 64 63 63
42 46 46 46 49 53 57 60 64 65 67 68 68 67 68 69 71 72 71 70 65 66
46 48 51 56 59 61 63 65 67 69 69 71 71 68 69 69 73 73 73 72 69 68
47 51 54 59 60 61 62 64 66 68 69 72 70 67 67 68 73 74 73 71 69 69
46 52 56 61 61 61 65 66 68 71 71 72 72 66 67 69 72 74 73 71 70 67
47 52 57 60 64 67 69 71 73 75 75 76 76 67 67 67 70 72 73 72 68 64
52 57 62 66 68 70 72 75 79 82 80 80 75 70 67 65 67 65 68 64 65 64
Wind_Direction_850mb
273 278 281 283 284 288 290 293 294 294 295 296 296 295 294 292 289 286 284 283 283 284
273 281 286 290 292 293 295 297 298 298 298 297 296 293 290 289 288 286 286 287 286 285
281 288 292 294 296 297 297 297 297 296 296 295 295 294 293 293 291 286 285 283 283 283
295 298 299 298 298 298 298 298 298 298 296 296 294 293 292 291 291 290 290 288 286 285
295 298 299 299 299 300 300 300 301 300 300 300 296 293 292 290 289 290 290 290 288 290
296 300 302 302 302 301 301 301 299 299 300 300 300 299 297 295 292 289 290 290 289 290
296 301 304 303 303 304 306 308 308 307 307 305 304 304 302 299 297 295 293 292 290 290
298 298 297 299 301 302 304 304 304 303 303 303 304 305 304 301 298 297 296 296 295 293
294 287 288 296 299 301 302 301 300 299 299 299 299 302 302 301 300 296 295 297 297 296
292 287 290 295 298 299 300 300 300 300 300 299 298 298 300 299 297 298 297 297 299 296
292 291 292 295 297 299 299 300 301 303 302 301 302 303 302 299 296 296 296 296 296 294
292 288 288 292 297 298 299 300 301 302 303 303 303 304 302 300 297 296 295 296 295 292
292 291 291 294 295 298 299 299 299 300 302 304 304 304 302 300 297 296 296 295 294 293
292 293 294 295 296 298 299 298 298 298 300 301 302 301 300 298 294 295 295 297 295 295